Terminal Aerodrome Forecast
Issued by NWS Salt Lake City, UT

Home | Current Version | Previous Version | Text Only | Print | Product List | Glossary On
Versions: 1 2 3 4 5 6 7 8 9 10 11 12 13 14 15 16 17 18 19 20 21 22 23 24 25 26 27 28 29 30 31 32 33 34 35 36 37 38 39 40 41 42 43 44 45 46 47 48 49
000
FTUS45 KSLC 211137
TAFSLC
TAF
KSLC 211137Z 2112/2218 19010KT 6SM -SHRA SCT020 OVC030
      TEMPO 2112/2115 5SM RA SCT015 OVC025
     FM212300 30012G22KT P6SM VCSH SCT015 OVC035=

USA.gov is the U.S. government's official web portal to all federal, state and local government web resources and services.